Location: Unspecified
(0.0000°N, 0.0000°E)
Time: 18:46:43
(UTC+00:00)

SRMSAT - Pass Details

Date: 04 June 2020
Orbit: 848 x 866 km, 20.0° (Epoch: 06 July)

Event Time Altitude Azimuth Distance (km) Brightness Sun altitude
Exits shadow 04:05:14 10° 167° (SSE) 2,470 ? -26.0°
Drops below altitude 10° 04:05:22 10° 165° (SSE) 2,487 ? -25.9°
Sets 04:09:46 0° 136° (SE) 3,434 ? -24.9°
